This is the latest recevied weather packets stored in our database for station/object N8HON. If no packets are shown the sender has not sent any weather packets the latest 10 day(s).
| Time | Temp. | Humidity | Pressure | Rain* | Wind** | Luminosity | Snow |
|---|---|---|---|---|---|---|---|
| 1777857888 | 8.89° C | 49% | 1013.3 hPa | 0 mm | - | 0 W/m² | - |
| 1777857586 | 8.89° C | 46% | 1013.1 hPa | 0 mm | - | 0 W/m² | - |
| 1777857282 | 8.89° C | 48% | 1013.2 hPa | 0 mm | - | 0 W/m² | - |
| 1777856978 | 8.89° C | 48% | 1013.3 hPa | 0 mm | - | 0 W/m² | - |
| 1777856674 | 8.89° C | 45% | 1013.1 hPa | 0 mm | - | 0 W/m² | - |
| 1777856370 | 9.44° C | 45% | 1013.2 hPa | 0 mm | - | 0 W/m² | - |
| 1777856067 | 9.44° C | 45% | 1013.1 hPa | 0 mm | - | 0 W/m² | - |
| 1777855765 | 9.44° C | 44% | 1013 hPa | 0 mm | - | 0 W/m² | - |
| 1777855463 | 9.44° C | 44% | 1013 hPa | 0 mm | - | 0 W/m² | - |
| 1777855159 | 9.44° C | 43% | 1012.8 hPa | 0 mm | - | 0 W/m² | - |
| 1777854855 | 10° C | 44% | 1012.9 hPa | 0 mm | - | 0 W/m² | - |
| 1777854552 | 10° C | 43% | 1012.9 hPa | 0 mm | - | 0 W/m² | - |
| 1777854249 | 10° C | 42% | 1012.9 hPa | 0 mm | - | 0 W/m² | - |
| 1777853947 | 10° C | 42% | 1012.8 hPa | 0 mm | - | 0 W/m² | - |
| 1777853644 | 10° C | 43% | 1012.8 hPa | 0 mm | - | 0 W/m² | - |
| 1777853340 | 10.56° C | 41% | 1012.7 hPa | 0 mm | - | 1 W/m² | - |
| 1777853038 | 10.56° C | 41% | 1012.8 hPa | 0 mm | - | 3 W/m² | - |
| 1777852735 | 10.56° C | 42% | 1012.8 hPa | 0 mm | - | 6 W/m² | - |
| 1777852433 | 10.56° C | 42% | 1012.9 hPa | 0 mm | - | 8 W/m² | - |
| 1777852130 | 10.56° C | 42% | 1012.7 hPa | 0 mm | - | 11 W/m² | - |
| 1777851828 | 10.56° C | 42% | 1012.7 hPa | 0 mm | - | 14 W/m² | - |
| 1777851525 | 11.11° C | 41% | 1012.9 hPa | 0 mm | - | 16 W/m² | - |
| 1777851221 | 11.11° C | 43% | 1012.7 hPa | 0 mm | - | 18 W/m² | - |
| 1777850917 | 11.11° C | 41% | 1012.8 hPa | 0 mm | - | 20 W/m² | - |
| 1777850615 | 11.11° C | 41% | 1013.1 hPa | 0 mm | - | 23 W/m² | - |
* Rain latest hour (hover to see other rain measurements)
** Current wind speed in m/s (hover to see current wind gust speed)